Broken Bow, NE

6:59 AM CDT on April 19, 2018 (GMT -0500)
Broken Bow Municipal

Weather History for KBBW - March, 2013

Change the Weather History Date:

Saturday, March 2, 2013

  Actual Average Record
Temperature  
Mean Temperature 31 °F 32 °F  
Max Temperature 53 °F 46 °F 76 °F (1992)
Min Temperature 8 °F 19 °F -7 °F (2014)
Degree Days  
Heating Degree Days 34 32  
Month to date heating degree days 79 65  
Cooling Degree Days 0 0  
Month to date cooling degree days 0 0  
Year to date cooling degree days 0 0  
Moisture  
Dew Point 18 °F    
Average Humidity 80    
Maximum Humidity 100    
Minimum Humidity 60    
Precipitation  
Precipitation 0.00 in 0.01 in 0.90 in (1912)
Sea Level Pressure  
Sea Level Pressure 30.22 in    
Wind  
Wind Speed 3 mph (South)    
Max Wind Speed 9 mph    
Max Gust Speed 13 mph    
Visibility 5 miles    
Events Fog    
T = Trace of Precipitation, MM = Missing Value Source: NWS Daily Summary

Daily Weather History Graph

Daily Weather History Graph

Search for Another Location

Airport or City:

Astronomy

Mar. 02, 2013 Rise Set
Actual Time 7:11 AM CST 6:30 PM CST
Civil Twilight 6:43 AM CST 6:58 PM CST
Nautical Twilight 6:11 AM CST 7:30 PM CST
Astronomical Twilight 5:39 AM CST 8:02 PM CST
Moon No Moon Rise 9:36 AM CST (3/2)
Length of Visible Light 12h 15m
Length of Day
11h 19m
Waning Gibbous, 74% of the Moon is Illuminated
Mar 2
Waning Gibbous
Mar 4
Last Quarter
Mar 11
New
Mar 19
First Quarter
Mar 27
Full

Hourly Weather History & Observations

Time (CST) Temp. Windchill Dew Point Humidity Pressure Visibility Wind Dir Wind Speed Gust Speed Precip Events Conditions
12:53 AM 12.0 °F - 9.0 °F 88% 30.38 in 7.0 mi Calm Calm - N/A   Clear
1:29 AM 10.4 °F - 8.6 °F 92% 30.27 in 1.8 mi Calm Calm - N/A   Clear
1:34 AM 12.2 °F - 8.6 °F 85% 30.27 in 0.8 mi Calm Calm - N/A   Clear
1:40 AM 10.4 °F - 10.4 °F 100% 30.27 in 1.2 mi Calm Calm - N/A   Clear
1:46 AM 10.4 °F - 8.6 °F 92% 30.26 in 3.0 mi Calm Calm - N/A   Clear
1:53 AM 10.0 °F - 7.0 °F 87% 30.38 in 5.0 mi Calm Calm - N/A   Clear
1:57 AM 10.4 °F - 8.6 °F 92% 30.27 in 1.8 mi Calm Calm - N/A   Clear
2:05 AM 8.6 °F - 8.6 °F 100% 30.27 in 1.0 mi Calm Calm - N/A   Clear
2:14 AM 8.6 °F - 6.8 °F 92% 30.27 in 1.2 mi Calm Calm - N/A   Clear
2:20 AM 8.6 °F - 6.8 °F 92% 30.27 in 0.8 mi Calm Calm - N/A   Clear
2:30 AM 12.2 °F - 10.4 °F 92% 30.26 in 1.2 mi Calm Calm - N/A   Partly Cloudy
2:45 AM 10.4 °F - 8.6 °F 92% 30.27 in 3.0 mi Calm Calm - N/A   Clear
2:53 AM 10.9 °F - 9.0 °F 92% 30.38 in 6.0 mi Calm Calm - N/A   Clear
3:47 AM 10.4 °F - 8.6 °F 92% 30.24 in 1.8 mi Calm Calm - N/A   Clear
3:50 AM 12.2 °F - 10.4 °F 92% 30.24 in 0.8 mi Calm Calm - N/A   Clear
3:53 AM 10.9 °F - 10.0 °F 96% 30.35 in 0.5 mi Calm Calm - N/A Fog Light Freezing Fog
4:04 AM 10.4 °F - 8.6 °F 92% 30.24 in 1.5 mi Calm Calm - N/A   Clear
4:07 AM 10.4 °F - 8.6 °F 92% 30.24 in 3.0 mi Calm Calm - N/A   Partly Cloudy
4:11 AM 10.4 °F - 8.6 °F 92% 30.23 in 1.8 mi Calm Calm - N/A   Scattered Clouds
4:17 AM 10.4 °F - 8.6 °F 92% 30.24 in 0.8 mi Calm Calm - N/A   Scattered Clouds
4:41 AM 12.2 °F - 10.4 °F 92% 30.23 in 1.5 mi Calm Calm - N/A   Scattered Clouds
4:49 AM 12.2 °F - 10.4 °F 92% 30.23 in 0.8 mi Calm Calm - N/A   Scattered Clouds
4:53 AM 12.0 °F - 10.0 °F 92% 30.33 in 0.5 mi Calm Calm - N/A Fog Light Freezing Fog
5:03 AM 12.2 °F - 10.4 °F 92% 30.22 in 1.2 mi Calm Calm - N/A   Mostly Cloudy
5:05 AM 12.2 °F - 10.4 °F 92% 30.22 in 3.0 mi Calm Calm - N/A   Mostly Cloudy
5:53 AM 15.8 °F - 14.0 °F 93% 30.22 in 7.0 mi Calm Calm - N/A   Overcast
6:53 AM 19.0 °F 12.3 °F 17.1 °F 92% 30.32 in 9.0 mi ESE 4.6 mph - N/A   Overcast
7:53 AM 21.0 °F - 19.0 °F 92% 30.30 in 6.0 mi Calm Calm - N/A   Overcast
8:53 AM 24.1 °F - 23.0 °F 96% 30.30 in 5.0 mi Calm Calm - N/A   Overcast
9:53 AM 28.9 °F 23.9 °F 26.1 °F 89% 30.27 in 7.0 mi SE 4.6 mph - N/A   Mostly Cloudy
10:53 AM 35.1 °F 31.0 °F 28.0 °F 76% 30.26 in 10.0 mi South 4.6 mph - N/A   Clear
11:53 AM 37.9 °F 31.5 °F 28.9 °F 70% 30.24 in 10.0 mi SW 9.2 mph - N/A   Clear
12:53 PM 43.0 °F 38.2 °F 32.0 °F 65% 30.20 in 10.0 mi SSW 8.1 mph - N/A   Clear
1:53 PM 46.0 °F 43.1 °F 34.0 °F 63% 30.16 in 10.0 mi SW 5.8 mph - N/A   Clear
2:53 PM 48.9 °F - 36.0 °F 61% 30.12 in 10.0 mi SW 5.8 mph - N/A   Clear
3:53 PM 50.0 °F - 37.9 °F 63% 30.10 in 10.0 mi SE 6.9 mph - N/A   Clear
4:53 PM 46.0 °F 41.9 °F 37.0 °F 71% 30.10 in 10.0 mi SE 8.1 mph - N/A   Clear
5:53 PM 43.0 °F - 36.0 °F 76% 30.10 in 10.0 mi Calm Calm - N/A   Clear
6:53 PM 37.4 °F 33.8 °F 33.8 °F 87% 30.02 in 10.0 mi ESE 4.6 mph - N/A   Clear
7:53 PM 34.0 °F - 32.0 °F 92% 30.10 in 8.0 mi Calm Calm - N/A   Clear
8:53 PM 32.0 °F - 30.0 °F 92% 30.09 in 8.0 mi Calm Calm - N/A   Clear
9:53 PM 30.9 °F - 28.9 °F 92% 30.07 in 7.0 mi Calm Calm - N/A   Clear
10:53 PM 32.0 °F - 28.9 °F 88% 30.06 in 8.0 mi Calm Calm - N/A   Clear
11:53 PM 30.0 °F - 28.9 °F 96% 30.03 in 6.0 mi Calm Calm - N/A   Clear